WX5HOT Weather Reports


time (UTC)temp
C
wind
direction
speed
KPH
gust
KPH
rain 1hr
cm
rain 24hr
cm
rain mn
cm
humidity
%
barometer
mb
20260505153221 16 173 3.2 4.8 0.30 0.53 0.53 99 1058.0
20260505152718 16 171 6.4 6.4 0.18 0.51 0.51 99 1058.0
20260505152214 16 180 6.4 6.4 0.18 0.48 0.48 99 1058.2
20260505151709 16 174 4.8 6.4 0.30 0.48 0.48 99 1058.0
20260505151207 16 176 4.8 6.4 0.30 0.46 0.46 99 1058.0
20260505150702 16 178 4.8 4.8 0.18 0.43 0.43 99 1058.3
20260505150200 16 175 6.4 6.4 0.30 0.43 0.43 99 1057.9
20260505140633 16 182 3.2 3.2 0.18 0.23 0.23 99 1057.7
20260505140130 16 194 4.8 4.8 0.18 0.23 0.23 99 1057.8
20260505124543 16 174 6.4 6.4 0.00 0.05 0.05 99 1057.3
20260505124040 16 192 6.4 6.4 0.00 0.05 0.05 99 1057.1
20260505123536 16 156 4.8 6.4 0.18 0.05 0.05 99 1057.0
20260505123032 16 188 9.7 12.9 0.18 0.05 0.05 99 1056.8
20260505122530 16 167 6.4 6.4 0.00 0.03 0.03 98 1056.9
20260505122027 16 177 9.7 12.9 0.13 0.03 0.03 98 1057.0
20260505121523 16 160 9.7 12.9 0.13 0.03 0.03 98 1056.7
20260505121019 16 169 11.3 12.9 0.13 0.03 0.03 98 1057.0
20260505120516 16 200 8.0 11.3 0.00 0.00 0.00 98 1056.8
20260505120011 16 191 8.0 11.3 0.00 0.00 0.00 98 1056.9
20260505115506 16 179 6.4 9.7 0.00 0.00 0.00 98 1056.5
20260505115004 16 174 6.4 6.4 0.00 0.00 0.00 98 1056.4
20260505114501 16 167 8.0 11.3 0.00 0.00 0.00 98 1056.3
20260505113957 16 189 6.4 6.4 0.00 0.00 0.00 98 1056.3
20260505113454 16 172 9.7 11.3 0.00 0.00 0.00 98 1056.3
20260505112950 16 202 6.4 6.4 0.00 0.00 0.00 98 1056.4
20260505112447 15 177 11.3 14.5 0.00 0.00 0.00 98 1056.0
20260505111944 15 184 8.0 9.7 0.00 0.00 0.00 97 1056.1
20260505111438 15 179 8.0 9.7 0.00 0.00 0.00 97 1056.1
20260505110935 15 175 9.7 9.7 0.00 0.00 0.00 97 1056.1
20260505110432 15 177 9.7 11.3 0.00 0.00 0.00 97 1056.0
20260505101903 16 197 12.9 14.5 0.00 0.00 0.00 93 1055.8
20260505101357 16 191 11.3 14.5 0.00 0.00 0.00 93 1055.8
20260505100854 16 174 11.3 16.1 0.00 0.00 0.00 93 1055.8
20260505100350 16 162 11.3 16.1 0.00 0.00 0.00 93 1056.0
20260505095846 16 192 14.5 16.1 0.00 0.00 0.00 92 1055.9
20260505095344 16 197 11.3 12.9 0.00 0.00 0.00 92 1056.0
20260505094839 16 185 14.5 16.1 0.00 0.00 0.00 92 1056.1
20260505094336 16 187 14.5 16.1 0.00 0.00 0.00 91 1056.0
20260505093832 16 161 16.1 17.7 0.00 0.00 0.00 91 1056.1
20260505093330 16 180 12.9 16.1 0.00 0.00 0.00 90 1056.1
20260505092826 16 197 14.5 20.9 0.00 0.00 0.00 90 1056.3
20260505092325 16 167 14.5 16.1 0.00 0.00 0.00 90 1056.1
20260505091821 16 197 9.7 11.3 0.00 0.00 0.00 90 1056.3
20260505091320 16 198 9.7 14.5 0.00 0.00 0.00 89 1056.6
20260505090817 16 201 8.0 9.7 0.00 0.00 0.00 89 1056.3
20260505090316 16 182 11.3 16.1 0.00 0.00 0.00 89 1056.4
20260505085812 16 193 11.3 14.5 0.00 0.00 0.00 88 1056.4
20260505085310 16 177 14.5 20.9 0.00 0.00 0.00 88 1056.4
20260505084808 16 188 11.3 12.9 0.00 0.00 0.00 87 1056.5
20260505084306 16 187 12.9 16.1 0.00 0.00 0.00 87 1056.4
20260505083803 16 185 19.3 24.1 0.00 0.00 0.00 87 1056.6
20260505083300 16 211 8.0 9.7 0.00 0.00 0.00 86 1056.6
20260505082756 16 171 9.7 14.5 0.00 0.00 0.00 86 1056.5
20260505082253 16 196 8.0 9.7 0.00 0.00 0.00 85 1056.9
20260505081749 16 174 14.5 17.7 0.00 0.00 0.00 85 1056.9
20260505081246 16 186 9.7 11.3 0.00 0.00 0.00 85 1057.0
20260505080743 16 182 8.0 14.5 0.00 0.00 0.00 84 1057.0
20260505080239 16 199 8.0 12.9 0.00 0.00 0.00 84 1056.9
20260505075734 16 172 4.8 9.7 0.00 0.00 0.00 84 1057.1
20260505075232 16 165 6.4 9.7 0.00 0.00 0.00 83 1057.0
20260505074729 17 204 8.0 12.9 0.00 0.00 0.00 82 1057.0
20260505074226 17 184 9.7 11.3 0.00 0.00 0.00 82 1057.3
20260505073724 17 189 12.9 16.1 0.00 0.00 0.00 82 1057.1
20260505073221 17 190 9.7 11.3 0.00 0.00 0.00 81 1057.2
20260505072717 17 190 6.4 9.7 0.00 0.00 0.00 81 1057.3
20260505072214 17 174 6.4 11.3 0.00 0.00 0.00 80 1057.4
20260505071709 17 169 8.0 11.3 0.00 0.00 0.00 80 1057.3
20260505071207 17 158 8.0 11.3 0.00 0.00 0.00 79 1057.2
20260505070704 17 205 9.7 14.5 0.00 0.00 0.00 79 1057.2
20260505070200 17 190 8.0 12.9 0.00 0.00 0.00 78 1057.1
20260505065656 17 192 8.0 11.3 0.00 0.00 0.00 78 1057.4
20260505065153 17 183 12.9 14.5 0.00 0.00 0.00 77 1057.6
20260505064650 17 178 9.7 11.3 0.00 0.00 0.00 77 1058.0
20260505064148 17 187 11.3 16.1 0.00 0.00 0.00 77 1058.2
20260505063646 17 174 9.7 11.3 0.00 0.00 0.00 76 1057.9
20260505063142 17 154 9.7 14.5 0.00 0.00 0.00 76 1058.0
20260505062638 17 184 9.7 11.3 0.00 0.00 0.00 75 1058.3
20260505062135 17 188 9.7 11.3 0.00 0.00 0.00 75 1058.3
20260505061632 17 163 6.4 6.4 0.00 0.00 0.00 74 1058.2
20260505061131 17 192 6.4 6.4 0.00 0.00 0.00 74 1058.4
20260505060628 17 173 11.3 12.9 0.00 0.00 0.00 73 1058.4
20260505060125 17 180 9.7 11.3 0.00 0.00 0.00 73 1058.6
20260505055620 17 154 9.7 11.3 0.00 0.00 0.00 72 1058.4
20260505055116 17 172 14.5 16.1 0.00 0.00 0.00 72 1058.5
20260505054614 17 188 8.0 9.7 0.00 0.00 0.00 71 1058.5
20260505054112 17 195 12.9 16.1 0.00 0.00 0.00 71 1058.5
20260505053609 17 169 12.9 17.7 0.00 0.00 0.00 70 1058.6
20260505053105 17 191 11.3 12.9 0.00 0.00 0.00 70 1058.8
20260505052602 17 185 8.0 11.3 0.00 0.00 0.00 70 1058.8
20260505052100 17 198 9.7 9.7 0.00 0.00 0.00 69 1058.8
20260505051557 17 178 9.7 11.3 0.00 0.00 0.00 69 1058.9
20260505051055 17 167 12.9 14.5 0.00 0.00 0.00 68 1058.9
20260505050552 17 169 8.0 9.7 0.00 0.00 0.00 68 1059.0
20260505041520 18 180 14.5 16.1 0.00 0.00 0.00 66 1059.5
20260505041018 17 185 9.7 12.9 0.00 0.00 0.00 66 1059.6
20260505040515 17 174 9.7 12.9 0.00 0.00 0.00 66 1059.5
20260505040012 17 171 11.3 12.9 0.00 0.00 0.00 66 1059.7
20260505035508 17 171 12.9 17.7 0.00 0.00 0.00 66 1059.7
20260505035005 17 184 11.3 12.9 0.00 0.00 0.00 66 1059.7
20260505034501 18 170 11.3 14.5 0.00 0.00 0.00 66 1059.3
20260505033958 18 181 14.5 16.1 0.00 0.00 0.00 66 1059.7
20260505033455 18 169 14.5 16.1 0.00 0.00 0.00 66 1059.6
20260505032954 18 181 9.7 12.9 0.00 0.00 0.00 66 1059.6
20260505032450 18 169 14.5 16.1 0.00 0.00 0.00 66 1059.7
20260505031946 18 184 14.5 14.5 0.00 0.00 0.00 66 1059.5
20260505031444 18 120 12.9 17.7 0.00 0.00 0.00 66 1059.5
20260505030941 18 152 11.3 14.5 0.00 0.00 0.00 66 1059.4
20260505030437 18 165 14.5 17.7 0.00 0.00 0.00 66 1059.7
20260505025932 18 167 11.3 12.9 0.00 0.00 0.00 66 1059.4
20260505025429 18 179 16.1 16.1 0.00 0.00 0.00 66 1059.5
20260505024928 18 170 16.1 20.9 0.00 0.00 0.00 66 1059.5
20260505024425 18 172 14.5 16.1 0.00 0.00 0.00 65 1059.6
20260505023922 18 165 16.1 20.9 0.00 0.00 0.00 65 1059.3
20260505023419 18 184 11.3 14.5 0.00 0.00 0.00 65 1059.0
20260505022916 18 173 14.5 17.7 0.00 0.00 0.00 65 1059.1
20260505022414 18 171 14.5 16.1 0.00 0.00 0.00 65 1059.1
20260505021911 18 177 12.9 14.5 0.00 0.00 0.00 64 1059.1
20260505021407 18 148 9.7 12.9 0.00 0.00 0.00 64 1059.0
20260505020903 18 260 14.5 14.5 0.00 0.00 0.00 64 1058.8
20260505020359 18 179 8.0 9.7 0.00 0.00 0.00 63 1058.9
20260505015856 18 177 12.9 14.5 0.00 0.00 0.00 64 1058.9
20260505015353 18 165 14.5 16.1 0.00 0.00 0.00 63 1058.7
20260505014850 18 167 12.9 14.5 0.00 0.00 0.00 64 1058.5
20260505014347 18 71 11.3 14.5 0.00 0.00 0.00 64 1058.7
20260505013844 18 156 14.5 16.1 0.00 0.00 0.00 64 1058.8
20260505013341 18 185 14.5 14.5 0.00 0.00 0.00 64 1058.5
20260505012839 18 175 11.3 14.5 0.00 0.00 0.00 65 1058.4
20260505012337 18 174 14.5 16.1 0.00 0.00 0.00 64 1058.4
20260505011832 18 178 11.3 12.9 0.00 0.00 0.00 64 1058.7
20260505011330 18 178 9.7 12.9 0.00 0.00 0.00 65 1058.7
20260505010825 19 169 11.3 14.5 0.00 0.00 0.00 64 1058.5
20260505010321 19 174 11.3 12.9 0.00 0.00 0.00 63 1058.8
20260505005818 19 131 12.9 16.1 0.00 0.00 0.00 62 1058.6
20260505005315 19 169 14.5 17.7 0.00 0.00 0.00 62 1058.4
20260505004812 19 183 11.3 14.5 0.00 0.00 0.00 62 1058.6
20260505004308 19 185 12.9 14.5 0.00 0.00 0.00 62 1058.6
20260505003806 19 154 14.5 17.7 0.00 0.00 0.00 61 1058.5
20260505003303 19 177 9.7 11.3 0.00 0.00 0.00 61 1058.7
20260505002759 19 177 9.7 12.9 0.00 0.00 0.00 61 1058.7
20260505002257 20 173 11.3 14.5 0.00 0.00 0.00 61 1058.7
20260505001754 20 186 9.7 11.3 0.00 0.00 0.00 61 1058.9
20260505001252 20 173 11.3 12.9 0.00 0.00 0.00 61 1058.8
20260505000749 20 171 8.0 11.3 0.00 0.00 0.00 60 1058.9
20260505000246 20 165 6.4 6.4 0.00 0.00 0.00 61 1058.9
20260504235743 20 187 9.7 11.3 0.00 0.00 0.00 60 1058.7
20260504235239 20 172 9.7 11.3 0.00 0.00 0.00 60 1058.9
20260504234736 20 188 9.7 12.9 0.00 0.00 0.00 59 1059.0
20260504234233 20 185 8.0 9.7 0.00 0.00 0.00 59 1058.8
20260504233730 20 182 14.5 16.1 0.00 0.00 0.00 58 1059.2
20260504233226 20 182 12.9 17.7 0.00 0.00 0.00 57 1059.0
20260504232723 20 159 12.9 14.5 0.00 0.00 0.00 58 1059.2
20260504232220 20 169 9.7 12.9 0.00 0.00 0.00 58 1059.1
20260504231716 20 174 8.0 9.7 0.00 0.00 0.00 58 1059.3
20260504231213 20 141 9.7 12.9 0.00 0.00 0.00 56 1059.3
20260504230709 20 180 11.3 12.9 0.00 0.00 0.00 57 1059.3
20260504230208 20 179 9.7 11.3 0.00 0.00 0.00 57 1059.3
20260504225706 20 164 11.3 12.9 0.00 0.00 0.00 59 1059.2
20260504225202 20 174 6.4 9.7 0.00 0.00 0.00 58 1059.3
20260504224659 21 161 8.0 9.7 0.00 0.00 0.00 57 1059.6
20260504224156 21 161 6.4 9.7 0.00 0.00 0.00 57 1059.6
20260504223653 21 196 12.9 16.1 0.00 0.00 0.00 56 1059.5
20260504223148 21 165 6.4 9.7 0.00 0.00 0.00 57 1059.6
20260504222646 21 132 4.8 4.8 0.00 0.00 0.00 57 1059.7
20260504222142 21 169 12.9 14.5 0.00 0.00 0.00 54 1059.9
20260504221640 21 182 11.3 14.5 0.00 0.00 0.00 54 1059.7
20260504221137 21 172 11.3 12.9 0.00 0.00 0.00 55 1059.8
20260504220633 22 175 9.7 12.9 0.00 0.00 0.00 52 1059.6
20260504220131 22 171 6.4 6.4 0.00 0.00 0.00 54 1059.9
20260504215627 21 179 4.8 4.8 0.00 0.00 0.00 53 1059.9
20260504215125 21 189 6.4 9.7 0.00 0.00 0.00 52 1060.2
20260504214620 22 186 8.0 9.7 0.00 0.00 0.00 52 1060.1
20260504214117 22 181 6.4 6.4 0.00 0.00 0.00 53 1060.2
20260504213613 21 184 4.8 4.8 0.00 0.00 0.00 55 1060.5
20260504213110 21 193 8.0 11.3 0.00 0.00 0.00 52 1060.5
20260504212606 21 155 9.7 12.9 0.00 0.00 0.00 54 1060.4
20260504212103 21 167 8.0 9.7 0.00 0.00 0.00 54 1060.4
20260504211601 21 189 11.3 14.5 0.00 0.00 0.00 52 1060.7
20260504211057 21 165 8.0 9.7 0.00 0.00 0.00 53 1060.5
20260504210555 21 171 6.4 9.7 0.00 0.00 0.00 54 1060.8
20260504210051 21 179 6.4 6.4 0.00 0.00 0.00 53 1060.9
20260504205549 21 172 8.0 9.7 0.00 0.00 0.00 55 1060.9
20260504205047 21 157 9.7 16.1 0.00 0.00 0.00 53 1061.1
20260504204544 21 169 6.4 9.7 0.00 0.00 0.00 53 1060.9
20260504204043 21 159 8.0 11.3 0.00 0.00 0.00 52 1061.3
20260504203541 21 164 8.0 11.3 0.00 0.00 0.00 54 1061.4
20260504203038 21 182 9.7 9.7 0.00 0.00 0.00 52 1061.5
20260504202533 21 178 6.4 9.7 0.00 0.00 0.00 52 1061.3
20260504202031 21 206 3.2 3.2 0.00 0.00 0.00 52 1061.3
20260504201527 21 174 8.0 9.7 0.00 0.00 0.00 54 1061.7
20260504201025 20 180 6.4 6.4 0.00 0.00 0.00 55 1062.0
20260504200521 21 147 9.7 11.3 0.00 0.00 0.00 53 1061.7
20260504200018 21 166 8.0 11.3 0.00 0.00 0.00 51 1062.0
20260504195514 21 182 4.8 6.4 0.00 0.00 0.00 55 1062.2
20260504195011 20 182 8.0 11.3 0.00 0.00 0.00 54 1062.1
20260504194508 20 176 6.4 11.3 0.00 0.00 0.00 56 1062.1
20260504194003 21 182 8.0 9.7 0.00 0.00 0.00 55 1062.3
20260504193500 20 189 8.0 9.7 0.00 0.00 0.00 55 1062.3
20260504192959 20 189 4.8 9.7 0.00 0.00 0.00 55 1062.3
20260504192456 20 146 6.4 6.4 0.00 0.00 0.00 54 1062.5
20260504191955 20 172 9.7 11.3 0.00 0.00 0.00 54 1062.6
20260504191452 20 177 12.9 16.1 0.00 0.00 0.00 55 1062.7
20260504190947 20 184 9.7 12.9 0.00 0.00 0.00 55 1062.4
20260504190443 20 182 12.9 14.5 0.00 0.00 0.00 55 1062.5
20260504185940 20 175 6.4 9.7 0.00 0.00 0.00 54 1062.3
20260504185438 20 171 8.0 14.5 0.00 0.00 0.00 53 1062.4
20260504184933 21 203 6.4 12.9 0.00 0.00 0.00 53 1062.5
20260504184429 20 189 8.0 6.4 0.00 0.00 0.00 53 1062.8
20260504183925 20 189 8.0 11.3 0.00 0.00 0.00 53 1062.7
20260504183423 20 174 11.3 14.5 0.00 0.00 0.00 53 1063.1
20260504182921 20 187 9.7 12.9 0.00 0.00 0.00 52 1063.1
20260504182417 21 169 8.0 11.3 0.00 0.00 0.00 52 1062.7
20260504181914 20 183 6.4 9.7 0.00 0.00 0.00 51 1063.0
20260504181412 20 154 6.4 9.7 0.00 0.00 0.00 52 1063.1
20260504180910 20 211 11.3 17.7 0.00 0.00 0.00 51 1063.0
20260504180409 20 189 9.7 12.9 0.00 0.00 0.00 51 1063.3
20260504175906 20 206 11.3 14.5 0.00 0.00 0.00 51 1063.3
20260504175403 20 178 11.3 14.5 0.00 0.00 0.00 51 1063.2
20260504174901 20 185 12.9 16.1 0.00 0.00 0.00 51 1063.3
20260504174358 20 211 14.5 24.1 0.00 0.00 0.00 51 1063.3
20260504173855 20 185 9.7 12.9 0.00 0.00 0.00 51 1063.2
20260504173352 20 179 11.3 12.9 0.00 0.00 0.00 52 1063.4
20260504172849 20 170 8.0 9.7 0.00 0.00 0.00 52 1063.2
20260504172345 20 173 9.7 12.9 0.00 0.00 0.00 54 1063.4
20260504171841 19 181 9.7 11.3 0.00 0.00 0.00 53 1063.7
20260504171339 19 170 11.3 14.5 0.00 0.00 0.00 52 1063.7
20260504170836 19 146 17.7 24.1 0.00 0.00 0.00 52 1063.6
20260504170332 19 145 9.7 17.7 0.00 0.00 0.00 53 1064.0
20260504160251 18 204 6.4 9.7 0.00 0.00 0.00 59 1064.5